Tiempo atmosférico en la estación meteorológica de Cabo Peñas, Asturias (100 m.)



Fecha
DESCASC
Temp. máxima en grados centígrados (hora)
DESCASC
Temp. mínima en grados centígrados (hora)
DESCASC
Temp. media en grados centígrados
DESCASC
Racha de viento máxima en m/sg (hora)
DESCASC
Velocidad máxima media en intervalos de 10 minutos(hora)
DESCASC
Precipitaciones diarias en mm
DESCASC
Precipitaciones de 00:00 a 06:00 en mm
DESCASC
Precipitaciones de 06:00 a 12:00 en mm
DESCASC
Precipitaciones de 12:00 a 18:00 en mm
DESCASC
Precipitaciones de 18:00 a 24:00 en mm
DESCASC
11-12-2019 -- (--) -- (--) -- 20.83 (18:30) 13.33 (18:30) 0 0 0 0 0
10-12-2019 -- (--) -- (--) -- 10.83 (23:30) 7.78 (23:30) 0 0 0 0 0
09-12-2019 -- (--) -- (--) -- 17.5 (03:00) 10.83 (04:20) 0 0 0 0 0
08-12-2019 -- (--) -- (--) -- 17.22 (23:30) 10.28 (23:59) 0 0 0 0 0
07-12-2019 -- (--) -- (--) -- 9.72 (06:00) 4.17 (05:20) 0 0 0 0 0
06-12-2019 -- (--) -- (--) -- 7.5 (15:00) 5 (00:10) 0 0 0 0 0
05-12-2019 -- (--) -- (--) -- 11.67 (21:10) 6.67 (20:30) 3.8 2.7 1 0.1 0
04-12-2019 -- (--) -- (--) -- 10.56 (23:30) 5 (01:00) 0 0 0 0 0
03-12-2019 -- (--) -- (--) -- 14.17 (06:50) 8.61 (06:00) 0 0 0 0 0
02-12-2019 -- (--) -- (--) -- 17.5 (06:40) 8.33 (18:50) 12.1 11.2 0.9 0 0
01-12-2019 -- (--) -- (--) -- 11.39 (23:40) 4.17 (02:30) 2.6 0.1 0.6 0.9 1
30-11-2019 -- (--) -- (--) -- 19.72 (07:10) 9.72 (07:10) 4.3 0.1 3.3 0.9 0
29-11-2019 -- (--) -- (--) -- 10.83 (00:30) 7.78 (23:00) 0 0 0 0 0
28-11-2019 -- (--) -- (--) -- 16.11 (02:50) 8.06 (01:50) 3.2 0 0 1.1 2.1
27-11-2019 -- (--) -- (--) -- 20.83 (05:10) 11.94 (01:40) 0.8 0.3 0 0 0.5
26-11-2019 -- (--) -- (--) -- 25 (18:30) 14.44 (19:10) 1.7 0 0 0 1.7
25-11-2019 -- (--) -- (--) -- 17.5 (08:10) 8.61 (02:10) 0.1 0.1 0 0 0
24-11-2019 -- (--) -- (--) -- 16.94 (00:10) 9.44 (01:50) 2 0.3 0 0.8 0.9
23-11-2019 -- (--) -- (--) -- -- (--) -- (--) -- -- -- 5.7 3.4
22-11-2019 -- (--) -- (--) -- 21.11 (13:20) 11.11 (23:59) 16.2 2 2.7 0.5 11
21-11-2019 -- (--) -- (--) -- 12.78 (03:00) 8.33 (09:50) 0.1 0.1 0 0 0
20-11-2019 -- (--) -- (--) -- 7.5 (20:30) 4.72 (22:30) 0.1 0 0 0 0.1
19-11-2019 -- (--) -- (--) -- 6.11 (07:50) 4.17 (01:00) 0.9 0 0 0 0.9
18-11-2019 -- (--) -- (--) -- 8.89 (01:40) 5.28 (15:40) 14.8 0.5 1 13 0.3
17-11-2019 -- (--) -- (--) -- 22.5 (15:20) 13.06 (16:50) 10.6 0.5 1.8 4.7 3.6
16-11-2019 -- (--) -- (--) -- 18.61 (12:30) 11.39 (12:20) 6.1 0 3.2 2.9 0
15-11-2019 -- (--) -- (--) -- 24.72 (05:30) 15.56 (08:20) 18.7 3.2 8.8 3.1 3.6

Gráficas

Temp. máximas Temp. mínimas Temp. medias Precipitaciones Rachas de viento máximas Velocidades máximas media en intervalos de 10 minutos

Datos horarios

Fecha y hora oficial Temperatura (ºC) Velocidad del viento (km/h) Dirección del viento Racha (km/h) Dirección de racha Precipitación (mm) Presión (hPa) Tendencia (hPa) Humedad (%)
2019-12-14 23:00:00 -- 27 Sudoeste 41 Sudoeste -- -- -- --
2019-12-14 22:00:00 -- 26 Sudoeste 49 Oeste -- -- -- --
2019-12-14 21:00:00 -- 19 Sudoeste 44 Sudoeste -- -- -- --
2019-12-14 20:00:00 -- 21 Oeste 36 Sudoeste -- -- -- --
2019-12-14 19:00:00 -- 24 Sudoeste 45 Sudoeste -- -- -- --
2019-12-14 18:00:00 -- 15 Sudoeste 49 Sudoeste -- -- -- --
2019-12-14 17:00:00 -- 35 Sudoeste 55 Sudoeste -- -- -- --
2019-12-14 16:00:00 -- 30 Oeste 51 Oeste -- -- -- --
2019-12-14 15:00:00 -- 26 Oeste 45 Oeste -- -- -- --
2019-12-14 14:00:00 -- 21 Oeste 39 Oeste -- -- -- --
2019-12-14 13:00:00 -- 23 Sudoeste 43 Sudoeste -- -- -- --
2019-12-14 12:00:00 -- 25 Sudoeste 51 Sudoeste -- -- -- --
2019-12-14 11:00:00 -- 24 Sudoeste 36 Sudoeste -- -- -- --
2019-12-14 10:00:00 -- 24 Sudoeste 41 Sudoeste -- -- -- --
2019-12-14 09:00:00 -- 25 Sudoeste 42 Sudoeste -- -- -- --
2019-12-14 08:00:00 -- 24 Sudoeste 53 Sudoeste -- -- -- --
2019-12-14 07:00:00 -- 27 Sudoeste 45 Sudoeste -- -- -- --
2019-12-14 06:00:00 -- 22 Oeste 46 Sudoeste -- -- -- --
2019-12-14 05:00:00 -- 26 Oeste 58 Oeste -- -- -- --
2019-12-14 04:00:00 -- 27 Oeste 57 Oeste -- -- -- --
2019-12-14 03:00:00 -- 34 Oeste 61 Oeste -- -- -- --
2019-12-14 02:00:00 -- 33 Oeste 58 Sudoeste -- -- -- --
2019-12-14 01:00:00 -- 30 Oeste 59 Oeste -- -- -- --
2019-12-14 00:00:00 -- 37 Oeste 64 Oeste -- -- -- --
2019-12-13 23:00:00 -- 35 Oeste 63 Oeste -- -- -- --
2019-12-13 22:00:00 -- 45 Oeste 84 Oeste -- -- -- --
2019-12-13 21:00:00 -- 26 Oeste 71 Oeste -- -- -- --
2019-12-13 20:00:00 -- 32 Oeste 83 Oeste -- -- -- --
2019-12-13 19:00:00 -- 42 Oeste 80 Oeste -- -- -- --
2019-12-13 18:00:00 -- 35 Oeste 85 Noroeste -- -- -- --
2019-12-13 17:00:00 -- 35 Oeste 86 Oeste -- -- -- --
2019-12-13 16:00:00 -- 32 Oeste 77 Oeste -- -- -- --
2019-12-13 15:00:00 -- 33 Oeste 95 Oeste -- -- -- --
2019-12-13 14:00:00 -- 30 Oeste 68 Sudoeste -- -- -- --
2019-12-13 13:00:00 -- 32 Oeste 65 Oeste -- -- -- --
2019-12-13 12:00:00 -- 29 Oeste 62 Oeste -- -- -- --
2019-12-13 11:00:00 -- 40 Oeste 85 Oeste -- -- -- --
2019-12-13 10:00:00 -- 40 Oeste 78 Oeste -- -- -- --
2019-12-13 09:00:00 -- 46 Oeste 84 Oeste -- -- -- --
2019-12-13 08:00:00 -- 45 Oeste 78 Oeste -- -- -- --
2019-12-13 07:00:00 -- 49 Oeste 90 Oeste -- -- -- --
2019-12-13 06:00:00 -- 40 Oeste 85 Oeste -- -- -- --
2019-12-13 05:00:00 -- 50 Oeste 84 Oeste -- -- -- --
2019-12-13 04:00:00 -- 50 Oeste 88 Oeste -- -- -- --
2019-12-13 03:00:00 -- 39 Oeste 78 Oeste -- -- -- --
2019-12-13 02:00:00 -- 46 Oeste 85 Oeste -- -- -- --
2019-12-13 01:00:00 -- 50 Oeste 82 Oeste -- -- -- --
2019-12-13 00:00:00 -- 50 Oeste 91 Oeste -- -- -- --
2019-12-12 23:00:00 -- 46 Oeste 83 Oeste -- -- -- --
2019-12-12 22:00:00 -- 44 Oeste 76 Oeste -- -- -- --
2019-12-12 21:00:00 -- 49 Oeste 77 Oeste -- -- -- --
2019-12-12 20:00:00 -- 48 Oeste 82 Oeste -- -- -- --
2019-12-12 19:00:00 -- 45 Oeste 84 Oeste -- -- -- --
2019-12-12 18:00:00 -- 47 Oeste 85 Oeste -- -- -- --
2019-12-12 17:00:00 -- 44 Oeste 81 Oeste -- -- -- --
2019-12-12 16:00:00 -- 51 Oeste 84 Oeste -- -- -- --
2019-12-12 15:00:00 -- 50 Oeste 81 Oeste -- -- -- --
2019-12-12 14:00:00 -- 46 Oeste 74 Oeste -- -- -- --
2019-12-12 13:00:00 -- 44 Sudoeste 75 Sudoeste -- -- -- --
2019-12-12 12:00:00 -- 46 Sudoeste 71 Sudoeste -- -- -- --
2019-12-12 11:00:00 -- 37 Sudoeste 54 Sudoeste 0 -- -- --
2019-12-12 10:00:00 -- 35 Sudoeste 56 Oeste 0 -- -- --
2019-12-12 09:00:00 -- 33 Sudoeste 49 Sudoeste 0 -- -- --
2019-12-12 08:00:00 -- 26 Sudoeste 50 Sudoeste 0 -- -- --
2019-12-12 07:00:00 -- 32 Oeste 63 Oeste 0 -- -- --
2019-12-12 06:00:00 -- 23 Sudoeste 48 Oeste 0 -- -- --
2019-12-12 05:00:00 -- 24 Oeste 50 Sudoeste 0 -- -- --
2019-12-12 04:00:00 -- 28 Sudoeste 44 Sudoeste 0 -- -- --
2019-12-12 03:00:00 -- 27 Oeste 62 Oeste 0 -- -- --
2019-12-12 02:00:00 -- 34 Oeste 61 Oeste 0 -- -- --
2019-12-12 01:00:00 -- 38 Oeste 69 Oeste 0 -- -- --
2019-12-12 00:00:00 -- 37 Oeste 61 Oeste 0 -- -- --
2019-12-11 23:00:00 -- 28 Oeste 68 Oeste 0 -- -- --
2019-12-11 22:00:00 -- 32 Oeste 66 Oeste 0 -- -- --
2019-12-11 21:00:00 -- 31 Oeste 66 Oeste 0 -- -- --
2019-12-11 20:00:00 -- 36 Oeste 66 Oeste 0 -- -- --
2019-12-11 19:00:00 -- 43 Oeste 75 Oeste 0 -- -- --
2019-12-11 18:00:00 -- 45 Oeste 74 Oeste 0 -- -- --
2019-12-11 17:00:00 -- 47 Oeste 75 Oeste 0 -- -- --
2019-12-11 16:00:00 -- 43 Oeste 74 Oeste 0 -- -- --
2019-12-11 15:00:00 -- 42 Oeste 68 Oeste 0 -- -- --
2019-12-11 14:00:00 -- 40 Oeste 69 Oeste 0 -- -- --
2019-12-11 13:00:00 -- 31 Oeste 57 Oeste 0 -- -- --
2019-12-11 12:00:00 -- 30 Oeste 53 Oeste 0 -- -- --
2019-12-11 11:00:00 -- 26 Oeste 56 Oeste 0 -- -- --
2019-12-11 10:00:00 -- 29 Oeste 57 Oeste 0 -- -- --
2019-12-11 09:00:00 -- 28 Oeste 47 Oeste 0 -- -- --
2019-12-11 08:00:00 -- 29 Oeste 59 Oeste 0 -- -- --
2019-12-11 07:00:00 -- 26 Oeste 64 Noroeste 0 -- -- --
2019-12-11 06:00:00 -- 15 Noroeste 55 Noroeste 0 -- -- --
2019-12-11 05:00:00 -- 29 Noroeste 56 Noroeste 0 -- -- --
2019-12-11 04:00:00 -- 27 Noroeste 59 Norte 0 -- -- --
2019-12-11 03:00:00 -- 24 Noroeste 67 Oeste 0 -- -- --
2019-12-11 02:00:00 -- 27 Noroeste 70 Noroeste 0 -- -- --
2019-12-11 01:00:00 -- 11 Sudoeste 31 Sudoeste 0 -- -- --
2019-12-11 00:00:00 -- 22 Sudoeste 39 Sudoeste 0 -- -- --
2019-12-10 23:00:00 -- 22 Sudoeste 30 Sudoeste 0 -- -- --
2019-12-10 22:00:00 -- 6 Noroeste 19 Oeste 0 -- -- --
2019-12-10 21:00:00 -- 14 Oeste 30 Sudoeste 0 -- -- --
2019-12-10 20:00:00 -- 17 Sudoeste 26 Sudoeste 0 -- -- --
2019-12-10 19:00:00 -- 6 Sur 15 Sur 0 -- -- --
2019-12-10 18:00:00 -- 4 Sur 9 Sur 0 -- -- --
2019-12-10 17:00:00 -- 3 Sur 9 Oeste 0 -- -- --
2019-12-10 16:00:00 -- 3 Oeste 8 Oeste 0 -- -- --
2019-12-10 15:00:00 -- 7 Oeste 10 Oeste 0 -- -- --
2019-12-10 14:00:00 -- 5 Oeste 8 Sudeste 0 -- -- --
2019-12-10 13:00:00 -- 2 Sudeste 10 Sudoeste 0 -- -- --
2019-12-10 12:00:00 -- 6 Sudoeste 10 Oeste 0 -- -- --
2019-12-10 11:00:00 -- 0 Calma 10 Sur 0 -- -- --
2019-12-10 10:00:00 -- 2 Sur 11 Sudoeste 0 -- -- --
2019-12-10 09:00:00 -- 7 Sudeste 19 Sudeste 0 -- -- --
2019-12-10 08:00:00 -- 6 Sudeste 18 Sudeste 0 -- -- --
2019-12-10 07:00:00 -- 11 Sur 19 Sur 0 -- -- --
2019-12-10 06:00:00 -- 6 Sudeste 16 Sudeste 0 -- -- --
2019-12-10 05:00:00 -- 8 Sudeste 19 Sudeste 0 -- -- --
2019-12-10 04:00:00 -- 5 Sudeste 18 Sur 0 -- -- --
2019-12-10 03:00:00 -- 8 Sur 18 Sur 0 -- -- --
2019-12-10 02:00:00 -- 4 Sur 13 Sudeste 0 -- -- --
2019-12-10 01:00:00 -- 5 Sur 7 Sur 0 -- -- --
2019-12-10 00:00:00 -- 4 Sur 10 Sudoeste 0 -- -- --
2019-12-09 23:00:00 -- 7 Sur 10 Sudoeste 0 -- -- --
2019-12-09 22:00:00 -- 6 Sur 12 Sudoeste 0 -- -- --
2019-12-09 21:00:00 -- 3 Noroeste 12 Noroeste 0 -- -- --
2019-12-09 20:00:00 -- 5 Noroeste 20 Noroeste 0 -- -- --
2019-12-09 19:00:00 -- 8 Noroeste 26 Noroeste 0 -- -- --
2019-12-09 18:00:00 -- 15 Noroeste 32 Noroeste 0 -- -- --
2019-12-09 17:00:00 -- 14 Noroeste 29 Noroeste 0 -- -- --
2019-12-09 16:00:00 -- 12 Noroeste 39 Oeste 0 -- -- --
2019-12-09 15:00:00 -- 21 Oeste 42 Noroeste 0 -- -- --
2019-12-09 14:00:00 -- 20 Oeste 50 Oeste 0 -- -- --
2019-12-09 13:00:00 -- 23 Oeste 44 Oeste 0 -- -- --
2019-12-09 12:00:00 -- 15 Noroeste 53 Oeste 0 -- -- --
2019-12-09 11:00:00 -- 28 Oeste 54 Oeste 0 -- -- --
2019-12-09 10:00:00 -- 27 Oeste 50 Sudoeste 0 -- -- --
2019-12-09 09:00:00 -- 30 Oeste 51 Oeste 0 -- -- --
2019-12-09 08:00:00 -- 32 Oeste 59 Oeste 0 -- -- --
2019-12-09 07:00:00 -- 35 Oeste 57 Oeste 0 -- -- --
2019-12-09 06:00:00 -- 34 Oeste 61 Oeste 0 -- -- --
2019-12-09 05:00:00 -- 36 Oeste 61 Oeste 0 -- -- --
2019-12-09 04:00:00 -- 38 Oeste 62 Oeste 0 -- -- --
2019-12-09 03:00:00 -- 25 Oeste 63 Oeste 0 -- -- --
2019-12-09 02:00:00 -- 19 Oeste 41 Oeste 0 -- -- --
2019-12-09 01:00:00 -- 26 Oeste 62 Oeste 0 -- -- --
2019-12-09 00:00:00 -- 37 Oeste 62 Oeste 0 -- -- --
2019-12-08 23:00:00 -- 35 Oeste 55 Oeste 0 -- -- --
2019-12-08 22:00:00 -- 29 Oeste 47 Oeste 0 -- -- --
2019-12-08 21:00:00 -- 26 Oeste 42 Oeste 0 -- -- --
2019-12-08 20:00:00 -- 22 Oeste 44 Oeste 0 -- -- --
2019-12-08 19:00:00 -- 22 Oeste 48 Oeste 0 -- -- --
2019-12-08 18:00:00 -- 18 Noroeste 44 Oeste 0 -- -- --
2019-12-08 17:00:00 -- 20 Oeste 45 Oeste 0 -- -- --
2019-12-08 16:00:00 -- 18 Noroeste 45 Noroeste 0 -- -- --
2019-12-08 15:00:00 -- 28 Noroeste 45 Noroeste 0 -- -- --
2019-12-08 14:00:00 -- 30 Noroeste 54 Noroeste 0 -- -- --
2019-12-08 13:00:00 -- 27 Noroeste 56 Noroeste 0 -- -- --
2019-12-08 12:00:00 -- 24 Oeste 39 Oeste 0 -- -- --
2019-12-08 11:00:00 -- 18 Oeste 28 Oeste 0 -- -- --
2019-12-08 10:00:00 -- 12 Oeste 16 Oeste 0 -- -- --
2019-12-08 09:00:00 -- 5 Oeste 18 Oeste 0 -- -- --
2019-12-08 08:00:00 -- 14 Oeste 20 Oeste 0 -- -- --
2019-12-08 07:00:00 -- 10 Oeste 17 Oeste 0 -- -- --
2019-12-08 06:00:00 -- 10 Sudoeste 15 Sudoeste 0 -- -- --
2019-12-08 05:00:00 -- 12 Sudoeste 14 Sudoeste 0 -- -- --
2019-12-08 04:00:00 -- 9 Sudoeste 12 Oeste 0 -- -- --
2019-12-08 03:00:00 -- 9 Sudoeste 13 Sudoeste 0 -- -- --
2019-12-08 02:00:00 -- 10 Sudoeste 15 Sudoeste 0 -- -- --
2019-12-08 01:00:00 -- 9 Sur 16 Sur 0 -- -- --
2019-12-08 00:00:00 -- 9 Sur 16 Sudeste 0 -- -- --
2019-12-07 23:00:00 -- 5 Sudeste 19 Sudeste 0 -- -- --
2019-12-07 22:00:00 -- 8 Sudeste 15 Sudeste 0 -- -- --
2019-12-07 21:00:00 -- 3 Sur 7 Sur 0 -- -- --
2019-12-07 20:00:00 -- 3 Sur 6 Sur 0 -- -- --
2019-12-07 19:00:00 -- 0 Calma 9 Noroeste 0 -- -- --
2019-12-07 18:00:00 -- 7 Noroeste 12 Noroeste 0 -- -- --
2019-12-07 17:00:00 -- 3 Noroeste 7 Noroeste 0 -- -- --
2019-12-07 16:00:00 -- 0 Calma 10 Sudoeste 0 -- -- --
2019-12-07 15:00:00 -- 5 Oeste 9 Oeste 0 -- -- --
2019-12-07 14:00:00 -- 5 Oeste 10 Oeste 0 -- -- --
2019-12-07 13:00:00 -- 5 Oeste 8 Oeste 0 -- -- --
2019-12-07 12:00:00 -- 0 Calma 10 Sudoeste 0 -- -- --
2019-12-07 11:00:00 -- 6 Sudoeste 10 Sudoeste 0 -- -- --
2019-12-07 10:00:00 -- 7 Sur 10 Sudoeste 0 -- -- --
2019-12-07 09:00:00 -- 7 Sudoeste 14 Sudoeste 0 -- -- --
2019-12-07 08:00:00 -- 12 Sudoeste 14 Sudoeste 0 -- -- --
2019-12-07 07:00:00 -- 12 Sudoeste 15 Sudoeste 0 -- -- --
2019-12-07 06:00:00 -- 12 Sudoeste 35 Sudoeste 0 -- -- --
2019-12-07 05:00:00 -- 14 Sudoeste 18 Sudoeste 0 -- -- --
2019-12-07 04:00:00 -- 12 Sudoeste 16 Sudoeste 0 -- -- --
2019-12-07 03:00:00 -- 9 Sudoeste 13 Sudoeste 0 -- -- --
2019-12-07 02:00:00 -- 9 Sudoeste 11 Sudoeste 0 -- -- --
2019-12-07 01:00:00 -- 6 Sur 12 Sudoeste 0 -- -- --
2019-12-07 00:00:00 -- 9 Sudoeste 13 Sudoeste 0 -- -- --
2019-12-06 23:00:00 -- 12 Sudoeste 14 Sudoeste 0 -- -- --
2019-12-06 22:00:00 -- 10 Sudoeste 14 Sudoeste 0 -- -- --
2019-12-06 21:00:00 -- 11 Oeste 17 Sudoeste 0 -- -- --
2019-12-06 20:00:00 -- 13 Sudoeste 17 Sudoeste 0 -- -- --
2019-12-06 19:00:00 -- 13 Oeste 19 Noroeste 0 -- -- --
2019-12-06 18:00:00 -- 12 Oeste 22 Oeste 0 -- -- --
2019-12-06 17:00:00 -- 10 Oeste 24 Oeste 0 -- -- --
2019-12-06 16:00:00 -- 10 Noroeste 25 Oeste 0 -- -- --
2019-12-06 15:00:00 -- 17 Oeste 27 Oeste 0 -- -- --
2019-12-06 14:00:00 -- 14 Oeste 21 Oeste 0 -- -- --
2019-12-06 13:00:00 -- 9 Sudoeste 14 Sudoeste 0 -- -- --
2019-12-06 12:00:00 -- 8 Sudoeste 14 Sudoeste 0 -- -- --
2019-12-06 11:00:00 -- 11 Sudoeste 16 Oeste 0 -- -- --
2019-12-06 10:00:00 -- 12 Sudoeste 14 Sudoeste 0 -- -- --
2019-12-06 09:00:00 -- 8 Sudoeste 11 Sudoeste 0 -- -- --
2019-12-06 08:00:00 -- 8 Sudoeste 10 Oeste 0 -- -- --
2019-12-06 07:00:00 -- 6 Sudoeste 12 Sudoeste 0 -- -- --
2019-12-06 06:00:00 -- 3 Sur 10 Sudeste 0 -- -- --
2019-12-06 05:00:00 -- 3 Este 6 Este 0 -- -- --
2019-12-06 04:00:00 -- 0 Calma 9 Sudeste 0 -- -- --
2019-12-06 03:00:00 -- 2 Sudeste 10 Sur 0 -- -- --
2019-12-06 02:00:00 -- 5 Sur 19 Sudeste 0 -- -- --
2019-12-06 01:00:00 -- 14 Sudeste 26 Sudeste 0 -- -- --
2019-12-06 00:00:00 -- 20 Sudeste 37 Este 0 -- -- --
2019-12-05 23:00:00 -- 22 Este 41 Este 0 -- -- --
2019-12-05 22:00:00 -- 21 Este 42 Este 0 -- -- --
2019-12-05 21:00:00 -- 21 Este 40 Este 0 -- -- --
2019-12-05 20:00:00 -- 22 Este 40 Este 0 -- -- --
2019-12-05 19:00:00 -- 19 Este 35 Este 0 -- -- --
2019-12-05 18:00:00 -- 19 Este 33 Este 0 -- -- --
2019-12-05 17:00:00 -- 18 Este 34 Este 0 -- -- --
2019-12-05 16:00:00 -- 18 Este 30 Este 0.1 -- -- --
2019-12-05 15:00:00 -- 6 Este 9 Este 0 -- -- --
2019-12-05 14:00:00 -- 6 Sudeste 13 Este 0 -- -- --
2019-12-05 13:00:00 -- 5 Este 15 Sudeste 0 -- -- --
2019-12-05 12:00:00 -- 13 Sudeste 22 Sudeste 0.1 -- -- --
2019-12-05 11:00:00 -- 14 Sudeste 19 Sudeste 0.5 -- -- --
2019-12-05 10:00:00 -- 9 Sudeste 17 Este 0.1 -- -- --
2019-12-05 09:00:00 -- 7 Sudeste 13 Sudeste 0 -- -- --
2019-12-05 08:00:00 -- 2 Sudeste 5 Este 0.1 -- -- --
2019-12-05 07:00:00 -- 0 Calma 8 Sudeste 0.2 -- -- --
2019-12-05 06:00:00 -- 4 Sur 9 Sudoeste 0.1 -- -- --
2019-12-05 05:00:00 -- 6 Sur 12 Sudoeste 0.3 -- -- --
2019-12-05 04:00:00 -- 6 Sudoeste 13 Oeste 1.1 -- -- --
2019-12-05 03:00:00 -- 5 Oeste 9 Oeste 1.2 -- -- --
2019-12-05 02:00:00 -- 6 Oeste 13 Sudoeste 0 -- -- --
2019-12-05 01:00:00 -- 12 Sudoeste 16 Sudoeste 0 -- -- --
2019-12-05 00:00:00 -- 12 Sudoeste 38 Sudoeste 0 -- -- --
2019-12-04 23:00:00 -- 10 Sudoeste 12 Sudoeste 0 -- -- --
2019-12-04 22:00:00 -- 8 Sudoeste 14 Sudoeste 0 -- -- --
2019-12-04 21:00:00 -- 10 Sudoeste 15 Sudoeste 0 -- -- --
2019-12-04 20:00:00 -- 13 Sudoeste 16 Sudoeste 0 -- -- --
2019-12-04 19:00:00 -- 10 Sudoeste 15 Oeste 0 -- -- --
2019-12-04 18:00:00 -- 10 Oeste 17 Oeste 0 -- -- --
2019-12-04 17:00:00 -- 11 Oeste 17 Oeste 0 -- -- --
2019-12-04 16:00:00 -- 12 Oeste 19 Sudoeste 0 -- -- --
2019-12-04 15:00:00 -- 12 Oeste 20 Oeste 0 -- -- --
2019-12-04 14:00:00 -- 13 Oeste 21 Oeste 0 -- -- --
2019-12-04 13:00:00 -- 14 Oeste 19 Sudoeste 0 -- -- --
2019-12-04 12:00:00 -- 12 Sudoeste 17 Sudoeste 0 -- -- --
2019-12-04 11:00:00 -- 8 Sudoeste 19 Sudoeste 0 -- -- --
2019-12-04 10:00:00 -- 14 Oeste 18 Oeste 0 -- -- --
2019-12-04 09:00:00 -- 14 Sudoeste 15 Sudoeste 0 -- -- --
2019-12-04 08:00:00 -- 12 Sudoeste 14 Sudoeste 0 -- -- --
2019-12-04 07:00:00 -- 13 Sudoeste 17 Sudoeste 0 -- -- --
2019-12-04 06:00:00 -- 9 Sudoeste 13 Sudoeste 0 -- -- --
2019-12-04 05:00:00 -- 10 Sudoeste 16 Sudoeste 0 -- -- --
2019-12-04 04:00:00 -- 6 Sudeste 17 Sudeste 0 -- -- --
2019-12-04 03:00:00 -- 6 Sudeste 21 Sudeste 0 -- -- --
2019-12-04 02:00:00 -- 7 Sudeste 22 Sudeste 0 -- -- --
2019-12-04 01:00:00 -- 18 Sudeste 21 Sudeste 0 -- -- --
2019-12-04 00:00:00 -- 10 Sudeste 31 Este 0 -- -- --
2019-12-03 23:00:00 -- 21 Este 31 Este 0 -- -- --
2019-12-03 22:00:00 -- 10 Sudeste 37 Este 0 -- -- --
2019-12-03 21:00:00 -- 17 Este 33 Este 0 -- -- --
2019-12-03 20:00:00 -- 20 Este 40 Este 0 -- -- --
2019-12-03 19:00:00 -- 22 Este 37 Este 0 -- -- --
2019-12-03 18:00:00 -- 21 Este 34 Este 0 -- -- --
2019-12-03 17:00:00 -- 22 Este 36 Este 0 -- -- --
2019-12-03 16:00:00 -- 22 Este 36 Este 0 -- -- --
2019-12-03 15:00:00 -- 23 Este 45 Este 0 -- -- --
2019-12-03 14:00:00 -- 24 Este 42 Este 0 -- -- --
2019-12-03 13:00:00 -- 25 Este 43 Este 0 -- -- --
2019-12-03 12:00:00 -- 26 Este 45 Este 0 -- -- --
2019-12-03 11:00:00 -- 26 Este 44 Este 0 -- -- --
2019-12-03 10:00:00 -- 26 Este 50 Este 0 -- -- --
2019-12-03 09:00:00 -- 29 Este 49 Este 0 -- -- --
2019-12-03 08:00:00 -- 28 Este 51 Este 0 -- -- --
2019-12-03 07:00:00 -- 27 Este 51 Este 0 -- -- --
2019-12-03 06:00:00 -- 31 Este 51 Este 0 -- -- --
2019-12-03 05:00:00 -- 26 Este 47 Este 0 -- -- --
2019-12-03 04:00:00 -- 23 Este 50 Este 0 -- -- --
2019-12-03 03:00:00 -- 23 Este 49 Sudeste 0 -- -- --
2019-12-03 02:00:00 -- 25 Este 44 Este 0 -- -- --
2019-12-03 01:00:00 -- 20 Sudeste 48 Este 0 -- -- --
2019-12-03 00:00:00 -- 24 Este 44 Este 0 -- -- --
2019-12-02 23:00:00 -- 28 Este 51 Este 0 -- -- --
2019-12-02 22:00:00 -- 27 Este 48 Este 0 -- -- --
2019-12-02 21:00:00 -- 26 Este 49 Sudeste 0 -- -- --
2019-12-02 20:00:00 -- 26 Este 45 Este 0 -- -- --
2019-12-02 19:00:00 -- 28 Sudeste 50 Este 0 -- -- --
2019-12-02 18:00:00 -- 24 Sudeste 48 Sudeste 0 -- -- --
2019-12-02 17:00:00 -- 20 Sudeste 48 Sudeste 0 -- -- --
2019-12-02 16:00:00 -- 19 Sudeste 49 Este 0 -- -- --
2019-12-02 15:00:00 -- 20 Este 57 Este 0 -- -- --
2019-12-02 14:00:00 -- 18 Este 58 Sudeste 0 -- -- --
2019-12-02 13:00:00 -- 18 Este 49 Sudeste 0 -- -- --
2019-12-02 12:00:00 -- 17 Este 53 Sudeste 0 -- -- --
2019-12-02 11:00:00 -- 20 Este 55 Este 0.2 -- -- --
2019-12-02 10:00:00 -- 19 Este 59 Sudeste 0.1 -- -- --
2019-12-02 09:00:00 -- 22 Este 62 Nordeste 0 -- -- --
2019-12-02 08:00:00 -- 22 Este 61 Este 0 -- -- --
2019-12-02 07:00:00 -- 22 Este 63 Este 0.6 -- -- --
2019-12-02 06:00:00 -- 11 Sudeste 24 Este 3 -- -- --
2019-12-02 05:00:00 -- 2 Sudeste 18 Sudeste 4.7 -- -- --
2019-12-02 04:00:00 -- 4 Sur 34 Este 0.1 -- -- --
2019-12-02 03:00:00 -- 13 Sudeste 41 Nordeste 1.2 -- -- --
2019-12-02 02:00:00 -- 13 Este 35 Sudeste 1 -- -- --
2019-12-02 01:00:00 -- 11 Este 39 Sudeste 1.2 -- -- --
2019-12-02 00:00:00 -- 12 Este 41 Sudeste 0.2 -- -- --
2019-12-01 23:00:00 -- 13 Este 40 Nordeste 0.5 -- -- --
2019-12-01 22:00:00 -- 10 Sur 35 Sur 0 -- -- --
2019-12-01 21:00:00 -- 8 Sur 32 Sur 0.3 -- -- --
2019-12-01 20:00:00 -- 10 Sur 38 Sudeste 0 -- -- --
2019-12-01 19:00:00 -- 12 Sur 33 Sur 0 -- -- --
2019-12-01 18:00:00 -- 11 Sur 37 Sur 0 -- -- --
2019-12-01 17:00:00 -- 12 Sur 34 Sudeste 0.2 -- -- --
2019-12-01 16:00:00 -- 10 Sur 32 Sudoeste 0.4 -- -- --
2019-12-01 15:00:00 -- 5 Sur 17 Sur 0 -- -- --
2019-12-01 14:00:00 -- 8 Sur 26 Sur 0 -- -- --
2019-12-01 13:00:00 -- 4 Sur 23 Sudoeste 0.3 -- -- --
2019-12-01 12:00:00 -- 8 Sur 33 Sudoeste 0.4 -- -- --
2019-12-01 11:00:00 -- 10 Sur 37 Sudoeste 0 -- -- --
2019-12-01 10:00:00 -- 7 Sur 33 Sudeste 0 -- -- --
2019-12-01 09:00:00 -- 12 Sudeste 37 Sudeste 0 -- -- --
2019-12-01 08:00:00 -- 6 Este 14 Este 0.1 -- -- --
2019-12-01 07:00:00 -- 4 Sudeste 11 Sudeste 0.1 -- -- --
2019-12-01 06:00:00 -- 5 Nordeste 14 Este 0.1 -- -- --
2019-12-01 05:00:00 -- 9 Sudeste 15 Sudeste 0 -- -- --
2019-12-01 04:00:00 -- 12 Sudeste 19 Sudeste 0 -- -- --
2019-12-01 03:00:00 -- 15 Sudeste 20 Este 0 -- -- --
2019-12-01 02:00:00 -- 12 Sudeste 20 Sudeste 0 -- -- --
2019-12-01 01:00:00 -- 12 Sudeste 18 Sudeste 0 -- -- --
2019-12-01 00:00:00 -- 3 Sur 17 Sudoeste 0 -- -- --
2019-11-30 23:00:00 -- 14 Sudoeste 24 Sudoeste 0 -- -- --
2019-11-30 22:00:00 -- 17 Sudoeste 25 Sudoeste 0 -- -- --
2019-11-30 21:00:00 -- 18 Sudoeste 25 Sudoeste 0 -- -- --
2019-11-30 20:00:00 -- 19 Sudoeste 29 Sudoeste 0 -- -- --
2019-11-30 19:00:00 -- 21 Sudoeste 29 Sudoeste 0 -- -- --
2019-11-30 18:00:00 -- 15 Sudoeste 27 Sudoeste 0 -- -- --
2019-11-30 17:00:00 -- 21 Sudoeste 66 Oeste 0.6 -- -- --
2019-11-30 16:00:00 -- 20 Oeste 59 Oeste 0.3 -- -- --
2019-11-30 15:00:00 -- 21 Noroeste 41 Noroeste 0 -- -- --
2019-11-30 14:00:00 -- 12 Oeste 24 Sudoeste 0 -- -- --
2019-11-30 13:00:00 -- 17 Sudoeste 33 Sudoeste 0 -- -- --
2019-11-30 12:00:00 -- 18 Oeste 54 Oeste 0.1 -- -- --
2019-11-30 11:00:00 -- 18 Oeste 30 Oeste 0 -- -- --
2019-11-30 10:00:00 -- 13 Sudoeste 24 Sudoeste 0.2 -- -- --
2019-11-30 09:00:00 -- 18 Sudoeste 36 Oeste 2.3 -- -- --
2019-11-30 08:00:00 -- 21 Oeste 71 Noroeste 0.4 -- -- --
2019-11-30 07:00:00 -- 31 Noroeste 62 Noroeste 0.3 -- -- --
2019-11-30 06:00:00 -- 16 Sudoeste 22 Sudoeste 0.1 -- -- --
2019-11-30 05:00:00 -- 5 Sudoeste 15 Sudoeste 0 -- -- --
2019-11-30 04:00:00 -- 12 Sudoeste 17 Sudoeste 0 -- -- --
2019-11-30 03:00:00 -- 9 Sur 15 Sur 0 -- -- --
2019-11-30 02:00:00 -- 14 Sudeste 25 Sudeste 0 -- -- --
2019-11-30 01:00:00 -- 23 Sudeste 27 Sudeste 0 -- -- --
2019-11-30 00:00:00 -- 14 Sudeste 30 Sudeste 0 -- -- --
2019-11-29 23:00:00 -- 28 Sudeste 35 Sudeste 0 -- -- --
2019-11-29 22:00:00 -- 27 Sudeste 35 Sudeste 0 -- -- --
2019-11-29 21:00:00 -- 15 Sudeste 20 Este 0 -- -- --
2019-11-29 20:00:00 -- 14 Este 21 Este 0 -- -- --
2019-11-29 19:00:00 -- 6 Este 15 Sudeste 0 -- -- --
2019-11-29 18:00:00 -- 6 Este 13 Nordeste 0 -- -- --
2019-11-29 17:00:00 -- 4 Nordeste 12 Sudeste 0 -- -- --
2019-11-29 16:00:00 -- 3 Norte 6 Noroeste 0 -- -- --
2019-11-29 15:00:00 -- 4 Noroeste 10 Noroeste 0 -- -- --
2019-11-29 14:00:00 -- 7 Oeste 12 Noroeste 0 -- -- --
2019-11-29 13:00:00 -- 6 Sudoeste 14 Sur 0 -- -- --
2019-11-29 12:00:00 -- 9 Sudoeste 14 Sudoeste 0 -- -- --
2019-11-29 11:00:00 -- 9 Sudoeste 15 Sudoeste 0 -- -- --
2019-11-29 10:00:00 -- 8 Sudoeste 15 Sudoeste 0 -- -- --
2019-11-29 09:00:00 -- 12 Sudoeste 19 Sudoeste 0 -- -- --
2019-11-29 08:00:00 -- 13 Sudoeste 18 Sudoeste 0 -- -- --
2019-11-29 07:00:00 -- 13 Sudoeste 16 Sudoeste 0 -- -- --
2019-11-29 06:00:00 -- 10 Sudoeste 19 Oeste 0 -- -- --
2019-11-29 05:00:00 -- 13 Oeste 25 Oeste 0 -- -- --
2019-11-29 04:00:00 -- 11 Oeste 28 Noroeste 0 -- -- --
2019-11-29 03:00:00 -- 14 Noroeste 36 Noroeste 0 -- -- --
2019-11-29 02:00:00 -- 15 Noroeste 35 Norte 0 -- -- --
2019-11-29 01:00:00 -- 14 Noroeste 39 Oeste 0 -- -- --
2019-11-29 00:00:00 -- 18 Noroeste 37 Oeste 0.1 -- -- --
2019-11-28 23:00:00 -- 19 Oeste 27 Oeste 0 -- -- --
2019-11-28 22:00:00 -- 12 Oeste 18 Oeste 0.3 -- -- --
2019-11-28 21:00:00 -- 5 Noroeste 16 Oeste 1.2 -- -- --
2019-11-28 20:00:00 -- 8 Oeste 19 Oeste 0.5 -- -- --
2019-11-28 19:00:00 -- 12 Sudoeste 18 Sudeste 0 -- -- --
2019-11-28 18:00:00 -- 10 Sudeste 24 Sudeste 0 -- -- --
2019-11-28 17:00:00 -- 7 Sudeste 22 Sudoeste 0.2 -- -- --
2019-11-28 16:00:00 -- 14 Sudoeste 27 Oeste 0.7 -- -- --
2019-11-28 15:00:00 -- 13 Oeste 27 Noroeste 0.2 -- -- --
2019-11-28 14:00:00 -- 9 Sudoeste 24 Sudoeste 0 -- -- --
2019-11-28 13:00:00 -- 11 Sudoeste 17 Sudoeste 0 -- -- --
2019-11-28 12:00:00 -- 14 Sudoeste 22 Oeste 0 -- -- --
2019-11-28 11:00:00 -- 14 Oeste 29 Oeste 0 -- -- --
2019-11-28 10:00:00 -- 10 Oeste 39 Oeste 0 -- -- --
2019-11-28 09:00:00 -- 14 Oeste 37 Oeste 0 -- -- --
2019-11-28 08:00:00 -- 14 Oeste 38 Noroeste 0 -- -- --
2019-11-28 07:00:00 -- 14 Noroeste 38 Noroeste 0 -- -- --
2019-11-28 06:00:00 -- 17 Noroeste 47 Noroeste 0 -- -- --
2019-11-28 05:00:00 -- 21 Noroeste 48 Noroeste 0 -- -- --
2019-11-28 04:00:00 -- 12 Noroeste 49 Noroeste 0 -- -- --
2019-11-28 03:00:00 -- 19 Oeste 58 Noroeste 0 -- -- --
2019-11-28 02:00:00 -- 26 Oeste 53 Noroeste 0 -- -- --
2019-11-28 01:00:00 -- 22 Oeste 42 Oeste 0 -- -- --
2019-11-28 00:00:00 -- 24 Oeste 37 Oeste 0 -- -- --
2019-11-27 23:00:00 -- 14 Sudoeste 23 Sudoeste 0 -- -- --
2019-11-27 22:00:00 -- 14 Sudoeste 34 Oeste 0 -- -- --
2019-11-27 21:00:00 -- 18 Oeste 46 Oeste 0.2 -- -- --
2019-11-27 20:00:00 -- 24 Oeste 48 Oeste 0.3 -- -- --
2019-11-27 19:00:00 -- 13 Sudoeste 36 Oeste 0 -- -- --
2019-11-27 18:00:00 -- 23 Oeste 49 Oeste 0 -- -- --
2019-11-27 17:00:00 -- 14 Sudoeste 36 Sudoeste 0 -- -- --
2019-11-27 16:00:00 -- 28 Sudoeste 59 Sudoeste 0 -- -- --
2019-11-27 15:00:00 -- 28 Oeste 48 Oeste 0 -- -- --
2019-11-27 14:00:00 -- 29 Oeste 61 Oeste 0 -- -- --
2019-11-27 06:00:00 -- 30 Oeste 75 Oeste 0 -- -- --
2019-11-27 05:00:00 -- 34 Oeste 64 Oeste 0 -- -- --
2019-11-27 04:00:00 -- 34 Oeste 69 Oeste 0 -- -- --
2019-11-27 03:00:00 -- 42 Oeste 63 Oeste 0 -- -- --
2019-11-27 02:00:00 -- 34 Oeste 72 Oeste 0.2 -- -- --
2019-11-27 01:00:00 -- 27 Oeste 63 Oeste 0.1 -- -- --
2019-11-27 00:00:00 -- 31 Oeste 65 Oeste 0 -- -- --
2019-11-26 23:00:00 -- 40 Sudoeste 62 Sudoeste 0 -- -- --
2019-11-26 22:00:00 -- 27 Oeste 61 Oeste 0 -- -- --
2019-11-26 21:00:00 -- 28 Sudoeste 57 Oeste 0 -- -- --
2019-11-26 20:00:00 -- 39 Sudoeste 87 Oeste 1 -- -- --
2019-11-26 19:00:00 -- 50 Oeste 90 Oeste 0.7 -- -- --
2019-11-26 18:00:00 -- 34 Sudoeste 52 Sudoeste 0 -- -- --
2019-11-26 17:00:00 -- 2 Sur 21 Este 0 -- -- --
2019-11-26 16:00:00 -- 12 Sudeste 18 Este 0 -- -- --
2019-11-26 15:00:00 -- 12 Este 20 Sudeste 0 -- -- --
2019-11-26 14:00:00 -- 8 Sudeste 21 Este 0 -- -- --
2019-11-26 13:00:00 -- 5 Este 14 Este 0 -- -- --
2019-11-26 12:00:00 -- 9 Sur 24 Sur 0 -- -- --
2019-11-26 11:00:00 -- 17 Sudoeste 27 Sudoeste 0 -- -- --
2019-11-26 10:00:00 -- 10 Sudoeste 29 Oeste 0 -- -- --
2019-11-26 09:00:00 -- 14 Oeste 27 Noroeste 0 -- -- --
2019-11-26 08:00:00 -- 9 Noroeste 21 Noroeste 0 -- -- --
2019-11-26 07:00:00 -- 5 Norte 11 Noroeste 0 -- -- --
2019-11-26 06:00:00 -- 9 Sudoeste 21 Oeste 0 -- -- --
2019-11-26 05:00:00 -- 13 Sudoeste 18 Sudoeste 0 -- -- --
2019-11-26 04:00:00 -- 5 Sudoeste 14 Sur 0 -- -- --
2019-11-26 03:00:00 -- 5 Sur 17 Sur 0 -- -- --
2019-11-26 02:00:00 -- 6 Sur 19 Sudeste 0 -- -- --
2019-11-26 01:00:00 -- 8 Sudeste 26 Sudeste 0 -- -- --
2019-11-26 00:00:00 -- 17 Sudeste 23 Sudeste 0 -- -- --
2019-11-25 23:00:00 -- 14 Sudeste 35 Sudeste 0 -- -- --
2019-11-25 22:00:00 -- 23 Sudeste 34 Sudeste 0 -- -- --
2019-11-25 21:00:00 -- 21 Sudeste 26 Sudeste 0 -- -- --
2019-11-25 20:00:00 -- 4 Sur 12 Oeste 0 -- -- --
2019-11-25 19:00:00 -- 9 Oeste 11 Oeste 0 -- -- --
2019-11-25 18:00:00 -- 10 Oeste 24 Noroeste 0 -- -- --
2019-11-25 17:00:00 -- 12 Noroeste 37 Norte 0 -- -- --
2019-11-25 16:00:00 -- 14 Noroeste 44 Oeste 0 -- -- --
2019-11-25 15:00:00 -- 18 Noroeste 57 Norte 0 -- -- --
2019-11-25 14:00:00 -- 14 Noroeste 42 Oeste 0 -- -- --
2019-11-25 13:00:00 -- 19 Oeste 49 Oeste 0 -- -- --
2019-11-25 12:00:00 -- 15 Oeste 40 Oeste 0 -- -- --
2019-11-25 11:00:00 -- 19 Oeste 56 Oeste 0 -- -- --
2019-11-25 10:00:00 -- 26 Oeste 59 Oeste 0 -- -- --
2019-11-25 09:00:00 -- 19 Noroeste 63 Noroeste 0 -- -- --
2019-11-25 08:00:00 -- 23 Noroeste 51 Oeste 0 -- -- --
2019-11-25 07:00:00 -- 17 Oeste 45 Oeste 0 -- -- --
2019-11-25 06:00:00 -- 19 Oeste 50 Oeste 0 -- -- --
2019-11-25 05:00:00 -- 19 Noroeste 58 Noroeste 0 -- -- --
2019-11-25 04:00:00 -- 18 Oeste 53 Noroeste 0 -- -- --
2019-11-25 03:00:00 -- 27 Oeste 57 Noroeste 0.1 -- -- --
2019-11-25 02:00:00 -- 18 Noroeste 46 Norte 0 -- -- --
2019-11-25 01:00:00 -- 14 Sudoeste 31 Oeste 0 -- -- --
2019-11-25 00:00:00 -- 21 Sudoeste 32 Sudoeste 0 -- -- --
2019-11-24 23:00:00 -- 19 Sudoeste 27 Sudoeste 0 -- -- --
2019-11-24 22:00:00 -- 14 Sudoeste 18 Sudoeste 0 -- -- --
2019-11-24 21:00:00 -- 9 Sudeste 15 Sudeste 0 -- -- --
2019-11-24 20:00:00 -- 4 Oeste 21 Sudeste 0.2 -- -- --
2019-11-24 19:00:00 -- 15 Sudeste 26 Sudeste 0.7 -- -- --
2019-11-24 18:00:00 -- 19 Sudeste 25 Sudeste 0 -- -- --
2019-11-24 17:00:00 -- 17 Sudeste 22 Sudeste 0.1 -- -- --
2019-11-24 16:00:00 -- 17 Sudeste 22 Sudeste 0.6 -- -- --
2019-11-24 15:00:00 -- 14 Sudeste 23 Sudeste 0 -- -- --
2019-11-24 14:00:00 -- 11 Sudeste 19 Sudeste 0.1 -- -- --
2019-11-24 13:00:00 -- 4 Sur 12 Sudoeste 0 -- -- --
2019-11-24 12:00:00 -- 4 Sur 13 Sur 0 -- -- --
2019-11-24 11:00:00 -- 5 Sur 24 Sudoeste 0 -- -- --
2019-11-24 10:00:00 -- 14 Sudoeste 26 Sudoeste 0 -- -- --
2019-11-24 09:00:00 -- 18 Sudoeste 35 Sudoeste 0 -- -- --
2019-11-24 08:00:00 -- 26 Sudoeste 39 Sudoeste 0 -- -- --
2019-11-24 07:00:00 -- 24 Sudoeste 37 Sudoeste 0 -- -- --
2019-11-24 06:00:00 -- 22 Sudoeste 29 Sudoeste 0 -- -- --
2019-11-24 05:00:00 -- 19 Sudoeste 51 Oeste 0 -- -- --
2019-11-24 04:00:00 -- 33 Oeste 59 Sudoeste 0 -- -- --
2019-11-24 03:00:00 -- 30 Oeste 51 Oeste 0.1 -- -- --
2019-11-24 02:00:00 -- 30 Oeste 56 Oeste 0.1 -- -- --
2019-11-24 01:00:00 -- 30 Oeste 61 Oeste 0.1 -- -- --
2019-11-24 00:00:00 -- 24 Oeste 55 Oeste 1.7 -- -- --
2019-11-23 23:00:00 -- 28 Oeste 63 Oeste 0 -- -- --
2019-11-23 22:00:00 -- 43 Oeste 63 Oeste 0 -- -- --
2019-11-23 21:00:00 -- 29 Oeste 57 Oeste 0 -- -- --
2019-11-23 20:00:00 -- 44 Oeste 77 Oeste 0.7 -- -- --
2019-11-23 19:00:00 -- 37 Oeste 64 Oeste 1 -- -- --
2019-11-23 18:00:00 -- 34 Oeste 68 Oeste 1 -- -- --
2019-11-23 17:00:00 -- 21 Noroeste 71 Oeste 0.1 -- -- --
2019-11-23 16:00:00 -- 33 Noroeste 65 Noroeste 0.1 -- -- --
2019-11-23 15:00:00 -- 22 Noroeste 84 Noroeste 0.9 -- -- --
2019-11-23 14:00:00 -- 37 Noroeste 72 Noroeste 3.6 -- -- --
2019-11-23 13:00:00 -- 28 Noroeste 70 Noroeste 0 -- -- --
2019-11-23 12:00:00 -- 39 Noroeste -- -- -- -- -- --
2019-11-23 11:00:00 -- -- -- -- -- -- -- -- --
2019-11-23 10:00:00 -- -- -- -- -- -- -- -- --
2019-11-23 09:00:00 -- -- -- -- -- -- -- -- --
2019-11-23 08:00:00 -- -- -- -- -- -- -- -- --
2019-11-23 07:00:00 -- -- -- -- -- -- -- -- --
2019-11-23 06:00:00 -- -- -- -- -- -- -- -- --
2019-11-23 05:00:00 -- -- -- -- -- -- -- -- --
2019-11-23 04:00:00 -- -- -- -- -- -- -- -- --
2019-11-23 03:00:00 -- -- -- -- -- -- -- -- --
2019-11-23 02:00:00 -- 53 Noroeste 104 Noroeste 5.1 -- -- --
2019-11-23 01:00:00 -- 39 Noroeste 95 Noroeste 5.7 -- -- --
2019-11-23 00:00:00 -- 40 Oeste 74 Oeste 5.7 -- -- --
2019-11-22 23:00:00 -- 31 Sudoeste 59 Oeste 3.4 -- -- --
2019-11-22 22:00:00 -- 29 Sudoeste 47 Oeste 1.7 -- -- --
2019-11-22 21:00:00 -- 35 Sudoeste 57 Sudoeste 0 -- -- --
2019-11-22 20:00:00 -- 37 Sudoeste 55 Sudoeste 0.2 -- -- --
2019-11-22 19:00:00 -- 27 Sudoeste 46 Sudoeste 0 -- -- --
2019-11-22 18:00:00 -- 30 Sudoeste 42 Sudoeste 0 -- -- --
2019-11-22 17:00:00 -- 26 Sudoeste 45 Sudoeste 0 -- -- --
2019-11-22 16:00:00 -- 27 Sudoeste 49 Sudoeste 0 -- -- --
2019-11-22 15:00:00 -- 22 Oeste 37 Oeste 0 -- -- --
2019-11-22 14:00:00 -- 25 Oeste 76 Oeste 0.4 -- -- --
2019-11-22 13:00:00 -- 13 Sudoeste 31 Sudoeste 0.1 -- -- --
2019-11-22 12:00:00 -- 13 Sudeste 23 Sudeste 0.1 -- -- --
2019-11-22 11:00:00 -- 6 Sur 46 Sudeste 1.7 -- -- --
2019-11-22 10:00:00 -- 14 Sudeste 36 Sudeste 0.2 -- -- --
2019-11-22 09:00:00 -- 26 Sudeste 40 Sudeste 0 -- -- --
2019-11-22 08:00:00 -- 26 Sudeste 49 Sudeste 0 -- -- --
2019-11-22 07:00:00 -- 29 Este 45 Este 0.7 -- -- --
2019-11-22 06:00:00 -- 14 Este 25 Este 1.6 -- -- --
2019-11-22 05:00:00 -- 10 Sudeste 16 Sudeste 0.4 -- -- --
2019-11-22 04:00:00 -- 11 Sudeste 26 Sudeste 0 -- -- --
2019-11-22 03:00:00 -- 17 Sudeste 22 Sudeste 0 -- -- --
2019-11-22 02:00:00 -- 8 Sudeste 12 Sudeste 0 -- -- --
2019-11-22 01:00:00 -- 5 Sudeste 11 Sur 0 -- -- --
2019-11-22 00:00:00 -- 5 Sur 12 Este 0 -- -- --
2019-11-21 23:00:00 -- 9 Sudoeste 14 Sudoeste 0 -- -- --
2019-11-21 22:00:00 -- 10 Sudoeste 19 Sudoeste 0 -- -- --
2019-11-21 21:00:00 -- 10 Sudoeste 18 Sudoeste 0 -- -- --
2019-11-21 20:00:00 -- 12 Sudoeste 22 Sudoeste 0 -- -- --
2019-11-21 19:00:00 -- 17 Sudoeste 25 Sudoeste 0 -- -- --
2019-11-21 18:00:00 -- 18 Sudoeste 39 Sudoeste 0 -- -- --
2019-11-21 17:00:00 -- 25 Sudoeste 37 Sudoeste 0 -- -- --
2019-11-21 16:00:00 -- 12 Oeste 37 Sudoeste 0 -- -- --
2019-11-21 15:00:00 -- 23 Sudoeste 41 Sudoeste 0 -- -- --
2019-11-21 14:00:00 -- 24 Sudoeste 38 Sudoeste 0 -- -- --
2019-11-21 13:00:00 -- 27 Sudoeste 40 Sudoeste 0 -- -- --
2019-11-21 12:00:00 -- 25 Sudoeste 41 Sudoeste 0 -- -- --
2019-11-21 11:00:00 -- 24 Sudoeste 40 Sudoeste 0 -- -- --
2019-11-21 10:00:00 -- 29 Sudoeste 43 Sudoeste 0 -- -- --
2019-11-21 09:00:00 -- 20 Sudoeste 37 Sudoeste 0 -- -- --
2019-11-21 08:00:00 -- 25 Sudoeste 41 Sudoeste 0 -- -- --
2019-11-21 07:00:00 -- 22 Sudoeste 35 Sudoeste 0 -- -- --
2019-11-21 06:00:00 -- 22 Sudoeste 33 Sudoeste 0 -- -- --
2019-11-21 05:00:00 -- 23 Sudoeste 32 Sudoeste 0 -- -- --
2019-11-21 04:00:00 -- 19 Sudoeste 28 Sudoeste 0 -- -- --
2019-11-21 03:00:00 -- 24 Oeste 46 Oeste 0 -- -- --
2019-11-21 02:00:00 -- 13 Sudoeste 19 Sudoeste 0 -- -- --
2019-11-21 01:00:00 -- 16 Sudoeste 23 Sudoeste 0.1 -- -- --
2019-11-21 00:00:00 -- 15 Sudoeste 23 Sudoeste 0 -- -- --
2019-11-20 23:00:00 -- 13 Sudoeste 24 Sudoeste 0 -- -- --
2019-11-20 22:00:00 -- 9 Sudoeste 22 Oeste 0 -- -- --
2019-11-20 21:00:00 -- 12 Oeste 27 Oeste 0.1 -- -- --
2019-11-20 20:00:00 -- 10 Oeste 19 Oeste 0 -- -- --
2019-11-20 19:00:00 -- 2 Oeste 9 Sudeste 0 -- -- --
2019-11-20 18:00:00 -- 6 Sudeste 9 Sudeste 0 -- -- --
2019-11-20 17:00:00 -- 4 Este 6 Este 0 -- -- --
2019-11-20 16:00:00 -- 0 Calma 11 Sudeste 0 -- -- --
2019-11-20 15:00:00 -- 4 Sudeste 10 Sudeste 0 -- -- --
2019-11-20 14:00:00 -- 5 Este 9 Este 0 -- -- --
2019-11-20 13:00:00 -- 0 Calma 8 Norte 0 -- -- --
2019-11-20 12:00:00 -- 0 Calma 12 Este 0 -- -- --
2019-11-20 11:00:00 -- 8 Sudoeste 12 Sudoeste 0 -- -- --
2019-11-20 10:00:00 -- 10 Sudeste 18 Sudeste 0 -- -- --
2019-11-20 09:00:00 -- 2 Sur 13 Sudoeste 0 -- -- --
2019-11-20 08:00:00 -- 8 Sudeste 13 Sudeste 0 -- -- --
2019-11-20 07:00:00 -- 10 Sudeste 13 Sudeste 0 -- -- --
2019-11-20 06:00:00 -- 5 Sudeste 10 Este 0 -- -- --
2019-11-20 05:00:00 -- 4 Oeste 12 Oeste 0 -- -- --
2019-11-20 04:00:00 -- 9 Oeste 16 Sudoeste 0 -- -- --
2019-11-20 03:00:00 -- 12 Sudoeste 16 Sudoeste 0 -- -- --
2019-11-20 02:00:00 -- 11 Sudoeste 15 Sudoeste 0 -- -- --
2019-11-20 01:00:00 -- 11 Sudeste 14 Sudeste 0 -- -- --
2019-11-20 00:00:00 -- 6 Sudeste 9 Sudeste 0 -- -- --
2019-11-19 23:00:00 -- 3 Sur 12 Sudeste 0.1 -- -- --
2019-11-19 22:00:00 -- 8 Sudeste 13 Sudeste 0.1 -- -- --
2019-11-19 21:00:00 -- 9 Sudeste 13 Sudeste 0.1 -- -- --
2019-11-19 20:00:00 -- 0 Calma 15 Oeste 0.5 -- -- --
2019-11-19 19:00:00 -- 4 Sudoeste 8 Sudoeste 0.1 -- -- --
2019-11-19 18:00:00 -- 8 Sudeste 12 Sudeste 0 -- -- --
2019-11-19 17:00:00 -- 7 Sudeste 14 Sudeste 0 -- -- --
2019-11-19 16:00:00 -- 8 Este 13 Este 0 -- -- --
2019-11-19 15:00:00 -- 10 Sudeste 16 Sudeste 0 -- -- --
2019-11-19 14:00:00 -- 10 Sudeste 17 Sudeste 0 -- -- --
2019-11-19 13:00:00 -- 12 Sudeste 18 Sudeste 0 -- -- --
2019-11-19 12:00:00 -- 3 Sur 13 Sudeste 0 -- -- --
2019-11-19 11:00:00 -- 4 Sudeste 15 Sudeste 0 -- -- --
2019-11-19 10:00:00 -- 4 Sudeste 14 Sudeste 0 -- -- --
2019-11-19 09:00:00 -- 5 Sur 17 Sudoeste 0 -- -- --
2019-11-19 08:00:00 -- 7 Sur 22 Sur 0 -- -- --
2019-11-19 07:00:00 -- 6 Sur 18 Sudoeste 0 -- -- --
2019-11-19 06:00:00 -- 5 Sur 14 Sur 0 -- -- --
2019-11-19 05:00:00 -- 8 Sur 14 Sudoeste 0 -- -- --
2019-11-19 04:00:00 -- 10 Sudoeste 16 Sudoeste 0 -- -- --
2019-11-19 03:00:00 -- 10 Sudoeste 14 Sudoeste 0 -- -- --
2019-11-19 02:00:00 -- 8 Sur 17 Sudoeste 0 -- -- --
2019-11-19 01:00:00 -- 15 Sudoeste 20 Sudoeste 0 -- -- --
2019-11-19 00:00:00 -- 13 Sudoeste 17 Sudoeste 0 -- -- --
2019-11-18 23:00:00 -- 6 Sur 17 Sudoeste 0 -- -- --
2019-11-18 22:00:00 -- 10 Sudoeste 15 Sudoeste 0.1 -- -- --
2019-11-18 21:00:00 -- 7 Oeste 16 Oeste 0.2 -- -- --
2019-11-18 20:00:00 -- 12 Sudoeste 18 Sudoeste 0 -- -- --
2019-11-18 19:00:00 -- 13 Sudoeste 21 Sudoeste 0 -- -- --
2019-11-18 18:00:00 -- 14 Sudoeste 21 Sudoeste 0 -- -- --
2019-11-18 17:00:00 -- 8 Oeste 21 Oeste 0 -- -- --
2019-11-18 16:00:00 -- 12 Oeste 32 Oeste 2.8 -- -- --
2019-11-18 15:00:00 -- 16 Sudoeste 22 Sudoeste 0 -- -- --
2019-11-18 14:00:00 -- 11 Oeste 25 Oeste 1.5 -- -- --
2019-11-18 13:00:00 -- 2 Nordeste 21 Sudoeste 8.7 -- -- --
2019-11-18 12:00:00 -- 17 Sudoeste 23 Sudoeste 0 -- -- --
2019-11-18 11:00:00 -- 16 Sudoeste 22 Oeste 0 -- -- --
2019-11-18 10:00:00 -- 14 Oeste 27 Sudoeste 1 -- -- --
2019-11-18 09:00:00 -- 16 Sudoeste 21 Sudoeste 0 -- -- --
2019-11-18 08:00:00 -- 0 Calma 21 Sur 0 -- -- --
2019-11-18 07:00:00 -- 6 Sudeste 18 Sudeste 0 -- -- --
2019-11-18 06:00:00 -- 6 Sudeste 20 Sudeste 0 -- -- --
2019-11-18 05:00:00 -- 5 Sudeste 23 Este 0 -- -- --
2019-11-18 04:00:00 -- 5 Sudeste 18 Este 0 -- -- --
2019-11-18 03:00:00 -- 5 Sudeste 18 Este 0 -- -- --
2019-11-18 02:00:00 -- 5 Sur 32 Sudoeste 0.5 -- -- --
2019-11-18 01:00:00 -- 5 Sur 17 Sur 0 -- -- --
2019-11-18 00:00:00 -- 5 Sur 22 Sur 0 -- -- --
2019-11-17 23:00:00 -- 8 Sur 36 Sudeste 0.1 -- -- --
2019-11-17 22:00:00 -- 9 Sur 31 Sudoeste 0.3 -- -- --
2019-11-17 21:00:00 -- 9 Sur 35 Sudeste 0.8 -- -- --
2019-11-17 20:00:00 -- 10 Sudeste 33 Sudeste 0.9 -- -- --
2019-11-17 19:00:00 -- 10 Sudeste 61 Sudeste 1.5 -- -- --
2019-11-17 18:00:00 -- 28 Oeste 72 Oeste 1.6 -- -- --
2019-11-17 17:00:00 -- 40 Oeste 75 Noroeste 0.5 -- -- --
2019-11-17 16:00:00 -- 31 Oeste 81 Noroeste 2.2 -- -- --
2019-11-17 15:00:00 -- 31 Noroeste 60 Oeste 0.4 -- -- --
2019-11-17 14:00:00 -- 31 Oeste 62 Oeste 0 -- -- --
2019-11-17 13:00:00 -- 31 Oeste 63 Noroeste 0 -- -- --
2019-11-17 12:00:00 -- 30 Oeste 57 Oeste 0.2 -- -- --
2019-11-17 11:00:00 -- 30 Noroeste 72 Sudoeste 0.1 -- -- --
2019-11-17 10:00:00 -- 22 Noroeste 61 Oeste 0.6 -- -- --
2019-11-17 09:00:00 -- 36 Oeste 70 Oeste 0.7 -- -- --
2019-11-17 08:00:00 -- 40 Oeste 71 Oeste 0 -- -- --
2019-11-17 07:00:00 -- 22 Oeste 50 Oeste 0.2 -- -- --
2019-11-17 06:00:00 -- 25 Sudoeste 40 Sudoeste 0.5 -- -- --
2019-11-17 05:00:00 -- 25 Sudoeste 35 Sudoeste 0 -- -- --
2019-11-17 04:00:00 -- 20 Sudoeste 28 Sudoeste 0 -- -- --
2019-11-17 03:00:00 -- 21 Sudoeste 32 Sudoeste 0 -- -- --
2019-11-17 02:00:00 -- 21 Sudoeste 31 Sudoeste 0 -- -- --
2019-11-17 01:00:00 -- 21 Sudoeste 34 Sudoeste 0 -- -- --
2019-11-17 00:00:00 -- 21 Sudoeste 36 Sudoeste 0 -- -- --
2019-11-16 23:00:00 -- 22 Sudoeste 35 Sudoeste 0 -- -- --
2019-11-16 22:00:00 -- 24 Sudoeste 34 Sudoeste 0 -- -- --
2019-11-16 21:00:00 -- 21 Sudoeste 34 Sudoeste 0 -- -- --
2019-11-16 20:00:00 -- 21 Sudoeste 32 Sudoeste 0 -- -- --
2019-11-16 19:00:00 -- 22 Sudoeste 46 Oeste 0 -- -- --
2019-11-16 18:00:00 -- 27 Oeste 52 Oeste 1.2 -- -- --
2019-11-16 17:00:00 -- 26 Sudoeste 43 Oeste 0.5 -- -- --
2019-11-16 16:00:00 -- 30 Oeste 57 Oeste 0 -- -- --
2019-11-16 15:00:00 -- 37 Oeste 62 Oeste 0 -- -- --
2019-11-16 14:00:00 -- 28 Oeste 57 Oeste 1.2 -- -- --
2019-11-16 13:00:00 -- 31 Oeste 67 Oeste 0 -- -- --
2019-11-16 12:00:00 -- 34 Oeste 56 Oeste 0.1 -- -- --
2019-11-16 11:00:00 -- 32 Oeste 56 Oeste 0.5 -- -- --
2019-11-16 10:00:00 -- 31 Oeste 54 Oeste 0 -- -- --
2019-11-16 09:00:00 -- 23 Sudoeste 43 Sudoeste 0.5 -- -- --
2019-11-16 08:00:00 -- 29 Sudoeste 49 Oeste 1.8 -- -- --
2019-11-16 07:00:00 -- 20 Sudoeste 40 Oeste 0.3 -- -- --
2019-11-16 06:00:00 -- 23 Sudoeste 41 Sudoeste 0 -- -- --
2019-11-16 05:00:00 -- 24 Sudoeste 36 Sudoeste 0 -- -- --
2019-11-16 04:00:00 -- 8 Oeste 42 Norte 0 -- -- --
2019-11-16 03:00:00 -- 17 Noroeste 40 Norte 0 -- -- --
2019-11-16 02:00:00 -- 14 Noroeste 31 Noroeste 0 -- -- --
2019-11-16 01:00:00 -- 5 Sur 30 Sudoeste 0 -- -- --
2019-11-16 00:00:00 -- 11 Sur 42 Sudeste 0 -- -- --
2019-11-15 23:00:00 -- 12 Sur 45 Norte 0.3 -- -- --
2019-11-15 22:00:00 -- 3 Sudeste 53 Norte 0.1 -- -- --
2019-11-15 21:00:00 -- 11 Sudeste 51 Norte 0.2 -- -- --
2019-11-15 20:00:00 -- 6 Sudeste 42 Sur 0 -- -- --
2019-11-15 19:00:00 -- 0 Calma 52 Norte 3 -- -- --
2019-11-15 18:00:00 -- 27 Noroeste 49 Norte 0.3 -- -- --
2019-11-15 17:00:00 -- 13 Sudeste 42 Norte 0 -- -- --
2019-11-15 16:00:00 -- 8 Sudeste 55 Oeste 0.2 -- -- --
2019-11-15 15:00:00 -- 2 Este 58 Noroeste 1.4 -- -- --
2019-11-15 14:00:00 -- 7 Sudeste 79 Noroeste 0.7 -- -- --
2019-11-15 13:00:00 -- 13 Noroeste 86 Norte 0.5 -- -- --
2019-11-15 12:00:00 -- 36 Noroeste 68 Noroeste 2.4 -- -- --
2019-11-15 11:00:00 -- 33 Noroeste 84 Noroeste 3.4 -- -- --
2019-11-15 10:00:00 -- 33 Noroeste 74 Noroeste 0.4 -- -- --
2019-11-15 09:00:00 -- 39 Noroeste 84 Norte 0.7 -- -- --
2019-11-15 08:00:00 -- 24 Norte 83 Noroeste 0.3 -- -- --
2019-11-15 07:00:00 -- 55 Noroeste 87 Noroeste 1.6 -- -- --
2019-11-15 06:00:00 -- 31 Noroeste 89 Norte 1.1 -- -- --
2019-11-15 05:00:00 -- 20 Norte 82 Norte 0 -- -- --
2019-11-15 04:00:00 -- 13 Sudeste 74 Norte 0.1 -- -- --
2019-11-15 03:00:00 -- 3 Nordeste 78 Norte 0.2 -- -- --
2019-11-15 02:00:00 -- 3 Nordeste 67 Norte 0.7 -- -- --
2019-11-15 01:00:00 -- 17 Sudeste 74 Noroeste 1.1 -- -- --
2019-11-15 00:00:00 -- 3 Nordeste 62 Norte 0.9 -- -- --